{"data":{"norad_id":58515,"epoch":"2026-09-20T13:42:11.979072Z","epoch_age_seconds":140664,"freshness":"FRESH","line1":"1 58515U 23191H   26263.57097198  .00000275  00000+0  19500-4 0  9997","line2":"2 58515  43.0036 210.5754 0000757 277.6141  82.4625 15.27577531157983","mean_motion":15.27577531,"eccentricity":7.57e-5,"inclination_deg":43.0036,"raan_deg":210.5754,"arg_perigee_deg":277.6141,"mean_anomaly_deg":82.4625,"bstar":1.95e-5,"rev_number":15798,"period_min":94.266901075544,"perigee_km":482.5370967767,"apogee_km":483.57588147096,"semimajor_km":6861.1934891238,"source":"CELESTRAK","updated_at":"2026-09-21T09:00:33.908062Z"}}